Home > Weather > Erfurt > Past weeks

Flag for Germany Past Weather in Erfurt, Thuringia, Germany — Yesterday and Last 2 Weeks

Now
68 °F

Broken clouds.


Feels Like: 68 °F
Forecast: 59 / 69 °F
Wind: 7 mph from Northeast

Location: Erfurt-Bindersleben

Current Time: May 29, 2016 at 3:27:47 PM

Latest Report: May 29, 2016 at 2:50 PM


Visibility: N/A

Pressure: 29.74 "Hg

Humidity: 78%

Dew Point: 61 °F

Location of ErfurtLocation

Past Weather in Erfurt — Graph

°F

Erfurt Temperature Yesterday

Maximum temperature yesterday: 73 °F (at 3:20 PM)
Minimum temperature yesterday: 54 °F (at 3:20 AM)
Average temperature yesterday: 62 °F

High & Low Weather Summary for the Past Weeks

 TemperatureHumidityPressure
High82 °F (May 22, 2:20 PM)100% (May 27, 10:50 AM)30.09 "Hg (May 27, 10:50 AM)
Low36 °F (May 15, 3:20 AM)25% (May 22, 2:50 PM)29.74 "Hg (May 19, 1:50 AM)
Average56 °F72%29.95 "Hg
* Reported May 14 2:20 PM — May 29 2:20 PM, Erfurt, Weather by CustomWeather, © 2016

Note: Actual official high and low records may vary slightly from our data, if they occured in-between our weather recording intervals... More about our weather records

Advertising

Erfurt Weather History for the Previous 24 Hours

Scroll right to see more
 ConditionsComfort  
Time TempWeatherWind HumidityBarometerVisibility
2:20 PM
Sun, May 29
66 °FPartly sunny.8 mph83%29.74 "Hg6 mi
1:50 PM66 °FPartly sunny.7 mph83%29.74 "Hg4 mi
1:20 PM64 °FPartly sunny.9 mph88%29.74 "Hg4 mi
12:50 PM64 °FPartly sunny.8 mph88%29.74 "Hg4 mi
12:20 PM64 °FPartly sunny.7 mph88%29.74 "Hg5 mi
11:50 AM64 °FPartly sunny.7 mph88%29.77 "Hg5 mi
11:20 AM64 °FPartly sunny.7 mph88%29.77 "Hg5 mi
10:50 AM63 °FPartly sunny.6 mph88%29.77 "Hg6 mi
10:20 AM63 °FLow clouds.3 mph88%29.77 "Hg6 mi
9:50 AM61 °FLow clouds.5 mph94%29.77 "HgN/A
9:20 AM61 °FLow clouds.3 mph94%29.77 "HgN/A
8:50 AM61 °FLow clouds.3 mph94%29.77 "HgN/A
8:20 AM61 °FLow clouds.3 mph88%29.77 "HgN/A
7:50 AM59 °FLow clouds.2 mph94%29.77 "Hg4 mi
7:20 AM59 °FPartly sunny.5 mph94%29.77 "Hg4 mi
6:50 AM59 °FFog.2 mph94%29.77 "Hg3 mi
6:20 AM59 °FFog.3 mph94%29.77 "Hg1 mi
5:50 AM57 °FFog.2 mph100%29.80 "Hg1 mi
5:20 AM57 °FFog.5 mph100%29.80 "Hg1 mi
4:50 AM57 °FFog.6 mph100%29.80 "Hg0 mi
4:20 AM57 °FFog.7 mph100%29.80 "Hg0 mi
3:50 AM57 °FFog.7 mph100%29.80 "Hg0 mi
3:20 AM57 °FRain showers. Partly cloudy.7 mph100%29.83 "Hg3 mi
2:50 AM57 °FSprinkles. Partly cloudy.8 mph100%29.83 "Hg5 mi
2:20 AM59 °FThundershowers. Fog.10 mph100%29.83 "Hg0 mi
1:50 AM59 °FCool.13 mph100%29.83 "Hg1 mi
1:20 AM59 °FThunderstorms. Passing clouds.10 mph100%29.86 "Hg1 mi
12:50 AM59 °FStrong thunderstorms. Passing clouds.8 mph100%29.86 "Hg2 mi
12:20 AM61 °FThunderstorms. Passing clouds.8 mph94%29.86 "Hg2 mi
11:50 PM
Sat, May 28
61 °FThundershowers. Partly cloudy.7 mph94%29.86 "HgN/A
11:20 PM63 °FThundershowers. Partly cloudy.3 mph88%29.86 "HgN/A
10:50 PM63 °FThundershowers. Partly cloudy.7 mph83%29.86 "HgN/A
10:20 PM64 °FLight rain. Passing clouds.6 mph83%29.89 "HgN/A
9:50 PM64 °FBroken clouds.6 mph83%29.89 "HgN/A
9:20 PM66 °FPartly sunny.5 mph78%29.89 "HgN/A
8:50 PM68 °FPartly sunny.6 mph69%29.89 "HgN/A
8:20 PM68 °FSprinkles. Partly sunny.7 mph69%29.89 "HgN/A
7:50 PM68 °FSprinkles. Broken clouds.7 mph69%29.89 "HgN/A
7:20 PM70 °FBroken clouds.9 mph64%29.89 "HgN/A
6:50 PM70 °FPartly sunny.9 mph64%29.89 "HgN/A
6:20 PM72 °FPartly sunny.9 mph61%29.89 "HgN/A
5:50 PM72 °FPartly sunny.8 mph61%29.89 "HgN/A
5:20 PM72 °FPartly sunny.9 mph61%29.89 "HgN/A
4:50 PM73 °FScattered clouds.9 mph61%29.89 "HgN/A
4:20 PM72 °FScattered clouds.8 mph65%29.92 "HgN/A
3:50 PM72 °FPassing clouds.7 mph61%29.92 "HgN/A
3:20 PM73 °FPassing clouds.8 mph61%29.92 "HgN/A
Weather by CustomWeather, © 2016

See weather overviewHow to use our weather pages